This is the latest recevied weather packets stored in our database for station/object LRAR. If no packets are shown the sender has not sent any weather packets the latest 1 day(s).
| Time | Temp. | Humidity | Pressure | Rain* | Wind** | Luminosity | Snow |
|---|---|---|---|---|---|---|---|
| 1836274084 | 15° C | 82% | 1026 hPa | - | 3.13 m/s, 140° | - | - |
| 1778019516 | 12.78° C | 59% | 1012 hPa | - | 1.34 m/s, 170° | - | - |
| 1778018619 | 12.78° C | 59% | 1012 hPa | - | 1.34 m/s, 170° | - | - |
| 1778017719 | 13.89° C | 59% | 1012 hPa | - | 2.68 m/s, 140° | - | - |
| 1778016819 | 13.89° C | 59% | 1012 hPa | - | 2.68 m/s, 140° | - | - |
| 1778015918 | 13.89° C | 55% | 1011 hPa | - | 2.24 m/s, 130° | - | - |
| 1778015018 | 13.89° C | 55% | 1011 hPa | - | 2.24 m/s, 130° | - | - |
| 1778012349 | 15° C | 55% | 1011 hPa | - | 0 m/s | - | - |
| 1778011419 | 15° C | 55% | 1011 hPa | - | 0 m/s | - | - |
| 1778010518 | 16.11° C | 52% | 1011 hPa | - | 1.34 m/s, 180° | - | - |
| 1778009618 | 16.11° C | 52% | 1011 hPa | - | 1.34 m/s, 180° | - | - |
| 1778008718 | 15° C | 55% | 1011 hPa | - | 2.68 m/s, 200° | - | - |
| 1778007818 | 15° C | 55% | 1011 hPa | - | 2.68 m/s, 200° | - | - |
| 1778006919 | 18.89° C | 43% | 1011 hPa | - | 2.68 m/s, 190° | - | - |
| 1778006019 | 18.89° C | 43% | 1011 hPa | - | 2.68 m/s, 190° | - | - |
| 1778005119 | 21.11° C | 38% | 1011 hPa | - | 2.68 m/s, 190° | - | - |
| 1778004219 | 21.11° C | 38% | 1011 hPa | - | 2.68 m/s, 190° | - | - |
| 1778003316 | 22.22° C | 38% | 1011 hPa | - | 2.24 m/s, 190° | - | - |
| 1778002418 | 22.22° C | 38% | 1011 hPa | - | 2.24 m/s, 190° | - | - |
| 1778001518 | 25° C | 28% | 1011 hPa | - | 2.24 m/s, 190° | - | - |
| 1778000619 | 25° C | 28% | 1011 hPa | - | 2.24 m/s, 190° | - | - |
| 1777999718 | 26.11° C | 24% | 1011 hPa | - | 3.13 m/s, 210° | - | - |
| 1777998818 | 26.11° C | 24% | 1011 hPa | - | 3.13 m/s, 210° | - | - |
| 1777997919 | 26.11° C | 28% | 1011 hPa | - | 2.24 m/s, 190° | - | - |
| 1777997019 | 26.11° C | 28% | 1011 hPa | - | 2.24 m/s, 190° | - | - |
* Rain since midnight (hover to see other rain measurements)
** Current wind speed in m/s (hover to see current wind gust speed)